Miscellaneous Local Product
Issued by NWS North Platte, NE

Home | Current Version | Previous Version | Graphics & Text | Print | Product List | Glossary On
Versions: 1 2 3 4 5 6 7 8 9 10 11 12 13 14 15 16 17 18 19 20 21 22 23 24 25 26 27 28 29 30 31 32 33 34 35 36 37 38 39 40 41 42 43 44 45 46 47 48 49 50
000
AXUS43 KLBF 021710
MISLBF


WESTERN AND NORTH CENTRAL NEBRASKA HOURLY WEATHER ROUNDUP
NATIONAL WEATHER SERVICE NORTH PLATTE NE
1100 AM CST FRI DEC 02 2016

NOTE: "FAIR" INDICATES FEW OR NO CLOUDS BELOW 12,000 FEET WITH NO
SIGNIFICANT WEATHER AND/OR OBSTRUCTIONS TO VISIBILITY.

NOTE: STATIONS NOT REPORTING VARIABLES SUCH AS SKY/WEATHER OR
PRESSURE ARE PROVIDED BY RAWS AND APRS NETWORKS AND ARE NOT UNDER
NATIONAL WEATHER SERVICE QUALITY CONTROL.

...OBSERVATIONS IN AND NEAR THE EASTERN PANHANDLE OF NEBRASKA...

CITY           SKY/WX    TMP DP  RH WIND       PRES   REMARKS
PINE RIDGE     SUNNY     25  22  88 CALM      30.20R
CHADRON        SUNNY     36  25  64 SW6       30.21R WCI  31
ALLIANCE       SUNNY     33  24  69 NW5       30.20R WCI  29
SIDNEY         CLOUDY    32  25  75 NW6       30.23R WCI  26
CRESCENT LAKE    N/A     35  26  69 N6          N/A  WCI  30
$$

...OBSERVATIONS IN NORTHERN NEBRASKA AND FAR SOUTHERN SOUTH DAKOTA...

CITY           SKY/WX    TMP DP  RH WIND       PRES   REMARKS
WINNER         CLOUDY    32  25  75 W6        30.26R WCI  26
VALENTINE      SUNNY     32  23  69 VRB3      30.23R
THEDFORD       SUNNY     35  25  66 CALM      30.24R
AINSWORTH      PTSUNNY   31  27  82 N5        30.23R WCI  27
O`NEILL        CLOUDY    32  29  91 CALM      30.27R
ORD            SUNNY     33  24  69 NW6       30.26R WCI  28
BROKEN BOW     SUNNY     36  26  67 N3        30.24R
VALENTINE NWR    N/A     33  25  72 N5          N/A  WCI  28
BUTTE            N/A     31  27  85 CALM        N/A
HALSEY           N/A     35  23  62 CALM        N/A
CHAMBERS         N/A     35  29  80 CALM        N/A
EWING            N/A     31  29  93 CALM        N/A
$$

...OBSERVATIONS IN SOUTHWEST NEBRASKA AND FAR NORTHEAST COLORADO...

CITY           SKY/WX    TMP DP  RH WIND       PRES   REMARKS
HOLYOKE        FAIR      37  27  65 N5        30.25R WCI  34
IMPERIAL       SUNNY     35  23  61 W6        30.25R WCI  30
OGALLALA       SUNNY     35  26  69 W6        30.25R WCI  30
NORTH PLATTE   SUNNY     32  24  72 SW3       30.25R
MCCOOK         MOSUNNY   31  20  63 VRB3      30.28R
LEXINGTON      SUNNY     33  26  76 CALM      30.27R
STAPLETON        N/A     33  25  72 CALM        N/A
GOTHENBURG       N/A     32  23  70 S3          N/A
CALLAWAY         N/A     36  28  72 NW3         N/A
$$

...OBSERVATIONS IN CENTRAL LINCOLN COUNTY AREA...

CITY           SKY/WX    TMP DP  RH WIND       PRES   REMARKS
N.P. AIRPORT   SUNNY     32  24  72 SW3       30.25R
N.P. DOWNTOWN    N/A     32  23  70 CALM        N/A
N.P. SOUTHEAST   N/A     33  23  66 CALM        N/A
N.P. HILLCREST   N/A     34  27  76 CALM        N/A
$$

...SOME OBSERVATIONS FROM AROUND THE REGION...

CITY           SKY/WX    TMP DP  RH WIND       PRES   REMARKS
LARAMIE        LGT SNOW  16  13  88 N5        30.12R FOG     WCI   9
CHEYENNE       CLOUDY    28  14  55 NE7       30.16R WCI  21
DENVER         CLOUDY    30  16  56 E5        30.20R WCI  25
AKRON          CLOUDY    32  17  54 NE5       30.21R WCI  27
SCOTTSBLUFF    SUNNY     33  23  66 W8        30.23R WCI  26
RAPID CITY     CLOUDY    34  26  72 N7        30.19R WCI  28
BISMARCK       CLOUDY    25  18  74 E7        30.27R WCI  17
PIERRE         CLOUDY    30  27  88 E5        30.26R WCI  25
SIOUX FALLS    CLOUDY    33  26  75 N6        30.26R WCI  28
OMAHA          MOSUNNY   39  30  70 N8        30.28S WCI  33
GRAND ISLAND   SUNNY     35  27  72 NW5       30.27R WCI  31
KANSAS CITY    MOSUNNY   43  27  53 NE5       30.28S
WICHITA        CLOUDY    45  28  51 NE6       30.25R
OKLAHOMA CITY  PTSUNNY   48  29  47 N6        30.19S
DALLAS         CLOUDY    57  38  48 E7        30.16F
AMARILLO       CLOUDY    43  23  45 E16       30.18R
DODGE CITY     MOSUNNY   44  15  31 NW3       30.24R
HAYS           SUNNY     38  21  50 NW7       30.25F WCI  33
GOODLAND       SUNNY     36  17  46 NW6       30.23R WCI  31
$$




USA.gov is the U.S. government's official web portal to all federal, state and local government web resources and services.